カタログに戻る

BREEZE-M R/B

運用中MEO
NORAD 39488·ROCKET BODY·🇷🇺 Russia

打ち上げ Dec 26, 2013 から Baikonur Cosmodrome

Loading…

次のパス (今後24時間)

TLE

最新Source: Space-Track

元期: Sep 14, 2026, 07:42 UTC

1 39488U 13077B   26257.32136435 -.00000197  00000-0  00000-0 0  9997
2 39488  10.8336  58.3020 0562876 184.8133 174.7534  0.89565692 41472

AllMySatでBREEZE-M R/Bをリアルタイム追跡

Download on the App Store